Hourly Weather Francistown

Today, 7 August, Friday

Time Temperature Precipitation Wind Pressure Humidity
00:00 +14°C° 0 mm 2 mps 679 mmHg 35%
01:00 +14°C° 0 mm 2 mps 679 mmHg 38%
02:00 +14°C° 0 mm 2 mps 679 mmHg 41%
03:00 +13°C° 0 mm 2 mps 679 mmHg 45%
04:00 +13°C° 0 mm 2 mps 678 mmHg 49%
05:00 +12°C° 0 mm 2 mps 678 mmHg 54%
06:00 +12°C° 0 mm 3 mps 679 mmHg 53%
07:00 +13°C° 0 mm 5 mps 680 mmHg 53%
08:00 +15°C° 0 mm 5 mps 682 mmHg 43%
09:00 +16°C° 0 mm 7 mps 682 mmHg 50%
10:00 +17°C° 0 mm 8 mps 682 mmHg 56%
11:00 +18°C° 0 mm 9 mps 683 mmHg 62%
12:00 +18°C° 0 mm 9 mps 682 mmHg 62%
13:00 +18°C° 0 mm 9 mps 682 mmHg 63%
14:00 +18°C° 0 mm 8 mps 682 mmHg 61%
15:00 +18°C° 0 mm 8 mps 682 mmHg 62%
16:00 +17°C° 0 mm 9 mps 682 mmHg 62%
17:00 +17°C° 0 mm 9 mps 682 mmHg 63%
18:00 +16°C° 0 mm 9 mps 682 mmHg 67%
19:00 +13°C° 0 mm 9 mps 682 mmHg 71%
20:00 +12°C° 0 mm 9 mps 683 mmHg 75%
21:00 +12°C° 0 mm 9 mps 683 mmHg 76%
22:00 +12°C° 0 mm 9 mps 683 mmHg 77%
23:00 +11°C° 0 mm 9 mps 684 mmHg 78%

Tomorrow, 8 August, Saturday

Time Temperature Precipitation Wind Pressure Humidity
00:00 +11°C° 0 mm 9 mps 683 mmHg 76%
01:00 +12°C° 0 mm 9 mps 683 mmHg 73%
02:00 +12°C° 0 mm 9 mps 683 mmHg 71%
03:00 +11°C° 0 mm 8 mps 683 mmHg 73%
04:00 +11°C° 0 mm 7 mps 683 mmHg 74%
05:00 +10°C° 0 mm 6 mps 682 mmHg 76%
06:00 +10°C° 0 mm 7 mps 683 mmHg 75%
07:00 +10°C° 0 mm 7 mps 683 mmHg 74%
08:00 +10°C° 0 mm 7 mps 684 mmHg 73%
09:00 +12°C° 0 mm 7 mps 684 mmHg 67%
10:00 +14°C° 0 mm 7 mps 684 mmHg 60%
11:00 +16°C° 0 mm 7 mps 684 mmHg 54%
12:00 +18°C° 0 mm 7 mps 684 mmHg 47%
13:00 +21°C° 0 mm 6 mps 683 mmHg 41%
14:00 +23°C° 0 mm 6 mps 682 mmHg 35%
15:00 +22°C° 0 mm 6 mps 682 mmHg 35%
16:00 +22°C° 0 mm 6 mps 681 mmHg 35%
17:00 +22°C° 0 mm 6 mps 681 mmHg 35%
18:00 +20°C° 0 mm 5 mps 681 mmHg 41%
19:00 +17°C° 0 mm 4 mps 680 mmHg 46%
20:00 +14°C° 0 mm 4 mps 680 mmHg 51%
21:00 +13°C° 0 mm 4 mps 680 mmHg 55%
22:00 +12°C° 0 mm 3 mps 680 mmHg 58%
23:00 +11°C° 0 mm 3 mps 680 mmHg 62%

Day after tomorrow, 9 August, Sunday

Time Temperature Precipitation Wind Pressure Humidity
00:00 +11°C° 0 mm 3 mps 680 mmHg 65%
01:00 +10°C° 0 mm 2 mps 679 mmHg 68%
02:00 +9°C° 0 mm 2 mps 679 mmHg 71%
03:00 +9°C° 0 mm 2 mps 679 mmHg 74%
04:00 +9°C° 0 mm 1 mps 678 mmHg 77%
05:00 +8°C° 0 mm 1 mps 678 mmHg 80%
06:00 +10°C° 0 mm 1 mps 678 mmHg 72%
07:00 +12°C° 0 mm 1 mps 679 mmHg 65%
08:00 +13°C° 0 mm 1 mps 679 mmHg 57%
09:00 +18°C° 0 mm 1 mps 680 mmHg 47%
10:00 +22°C° 0 mm 1 mps 680 mmHg 37%
11:00 +26°C° 0 mm 1 mps 681 mmHg 26%
12:00 +27°C° 0 mm 1 mps 680 mmHg 23%
13:00 +28°C° 0 mm 2 mps 679 mmHg 19%
14:00 +30°C° 0 mm 2 mps 678 mmHg 15%
15:00 +29°C° 0 mm 3 mps 678 mmHg 15%
16:00 +29°C° 0 mm 3 mps 678 mmHg 15%
17:00 +29°C° 0 mm 4 mps 678 mmHg 15%
18:00 +26°C° 0 mm 4 mps 677 mmHg 19%
19:00 +22°C° 0 mm 3 mps 677 mmHg 24%
20:00 +19°C° 0 mm 3 mps 677 mmHg 28%
21:00 +17°C° 0 mm 2 mps 677 mmHg 32%
22:00 +16°C° 0 mm 2 mps 677 mmHg 35%
23:00 +14°C° 0 mm 1 mps 677 mmHg 39%

10 August, Monday

Time Temperature Precipitation Wind Pressure Humidity
00:00 +14°C° 0 mm 1 mps 677 mmHg 39%
01:00 +14°C° 0 mm 1 mps 676 mmHg 39%
02:00 +14°C° 0 mm 2 mps 676 mmHg 39%
03:00 +14°C° 0 mm 1 mps 676 mmHg 40%
04:00 +13°C° 0 mm 1 mps 676 mmHg 41%
05:00 +13°C° 0 mm 1 mps 676 mmHg 42%
06:00 +15°C° 0 mm 1 mps 677 mmHg 37%
07:00 +18°C° 0 mm 1 mps 678 mmHg 32%
08:00 +19°C° 0 mm 2 mps 679 mmHg 27%
09:00 +23°C° 0 mm 2 mps 679 mmHg 22%
10:00 +27°C° 0 mm 2 mps 680 mmHg 18%
11:00 +30°C° 0 mm 2 mps 680 mmHg 13%
12:00 +31°C° 0 mm 3 mps 680 mmHg 12%
13:00 +32°C° 0 mm 4 mps 679 mmHg 10%
14:00 +33°C° 0 mm 5 mps 678 mmHg 9%
15:00 +33°C° 0 mm 4 mps 678 mmHg 9%
16:00 +32°C° 0 mm 4 mps 678 mmHg 9%
17:00 +30°C° 0 mm 4 mps 677 mmHg 10%
18:00 +27°C° 0 mm 3 mps 677 mmHg 13%
19:00 +24°C° 0 mm 3 mps 677 mmHg 16%
20:00 +20°C° 0 mm 3 mps 677 mmHg 18%
21:00 +18°C° 0 mm 2 mps 677 mmHg 21%
22:00 +17°C° 0 mm 2 mps 677 mmHg 23%
23:00 +16°C° 0 mm 2 mps 677 mmHg 25%

11 August, Tuesday

Time Temperature Precipitation Wind Pressure Humidity
00:00 +15°C° 0 mm 2 mps 677 mmHg 29%
01:00 +13°C° 0 mm 3 mps 677 mmHg 33%
02:00 +12°C° 0 mm 4 mps 677 mmHg 37%
03:00 +12°C° 0 mm 4 mps 677 mmHg 47%
04:00 +11°C° 0 mm 4 mps 677 mmHg 56%
05:00 +10°C° 0 mm 4 mps 677 mmHg 66%
06:00 +10°C° 0 mm 5 mps 678 mmHg 69%
07:00 +12°C° 0 mm 5 mps 679 mmHg 72%
08:00 +11°C° 0 mm 6 mps 680 mmHg 75%
09:00 +15°C° 0 mm 5 mps 680 mmHg 63%
10:00 +19°C° 0 mm 5 mps 681 mmHg 51%
11:00 +22°C° 0 mm 4 mps 681 mmHg 39%
12:00 +25°C° 0 mm 4 mps 680 mmHg 32%
13:00 +27°C° 0 mm 3 mps 680 mmHg 24%
14:00 +29°C° 0 mm 3 mps 679 mmHg 17%
15:00 +29°C° 0 mm 3 mps 679 mmHg 16%
16:00 +29°C° 0 mm 3 mps 678 mmHg 15%
17:00 +29°C° 0 mm 3 mps 678 mmHg 15%
18:00 +26°C° 0 mm 3 mps 678 mmHg 22%
19:00 +21°C° 0 mm 4 mps 678 mmHg 30%
20:00 +18°C° 0 mm 4 mps 678 mmHg 37%
21:00 +17°C° 0 mm 4 mps 678 mmHg 45%
22:00 +14°C° 0 mm 3 mps 678 mmHg 52%
23:00 +13°C° 0 mm 3 mps 678 mmHg 59%

12 August, Wednesday

Time Temperature Precipitation Wind Pressure Humidity
00:00 +12°C° 0 mm 3 mps 677 mmHg 58%
01:00 +12°C° 0 mm 3 mps 677 mmHg 58%
02:00 +13°C° 0 mm 2 mps 677 mmHg 57%
03:00 +12°C° 0 mm 2 mps 677 mmHg 57%
04:00 +12°C° 0 mm 1 mps 677 mmHg 57%
05:00 +11°C° 0 mm 1 mps 677 mmHg 56%
06:00 +14°C° 0 mm 1 mps 678 mmHg 47%
07:00 +16°C° 0 mm 1 mps 679 mmHg 37%
08:00 +18°C° 0 mm 2 mps 680 mmHg 28%
09:00 +23°C° 0 mm 2 mps 680 mmHg 22%
10:00 +27°C° 0 mm 1 mps 681 mmHg 16%
11:00 +31°C° 0 mm 1 mps 681 mmHg 10%
12:00 +32°C° 0 mm 2 mps 681 mmHg 9%
13:00 +34°C° 0 mm 3 mps 680 mmHg 8%
14:00 +34°C° 0 mm 3 mps 679 mmHg 8%
15:00 +34°C° 0 mm 3 mps 679 mmHg 8%
16:00 +33°C° 0 mm 4 mps 679 mmHg 8%
17:00 +33°C° 0 mm 4 mps 678 mmHg 9%
18:00 +28°C° 0 mm 3 mps 678 mmHg 12%
19:00 +25°C° 0 mm 3 mps 678 mmHg 15%
20:00 +21°C° 0 mm 3 mps 678 mmHg 18%
21:00 +19°C° 0 mm 3 mps 678 mmHg 20%
22:00 +18°C° 0 mm 2 mps 678 mmHg 23%
23:00 +17°C° 0 mm 2 mps 678 mmHg 25%
Show more